#timestamp,LO_Frequency,Hit,StdDev 
1540832415.9,286046996.9,N
1540832435.7,286046999.0,N
1540832455.5,286046999.5,N
1540832475.4,286046996.6,N
1540832495.2,286046997.4,N
1540832515.1,286046997.1,N
1540832516.0,286046997.1,N
1540832535.8,286046996.7,N
1540832555.6,286046995.1,Y
1540832575.5,286046997.6,P
1540832595.3,286046996.8,P
1540832615.1,286046997.5,N
1540832635.9,286046997.8,N
1540832655.7,286046997.5,Y
1540832675.6,286046998.3,P
1540832695.4,286046998.9,P
1540832715.2,286046999.4,N
1540832735.1,286046999.0,N
1540832736.0,286046999.0,N
1540832755.8,286046998.8,N
1540832775.7,286046998.6,N
1540832795.5,286046999.0,N
1540832815.3,286046997.0,Y
1540832835.2,286046998.6,P
1540832855.0,286046998.4,P
1540832855.9,286046998.4,P
1540832875.7,286046998.4,Y
1540832895.6,286047002.4,P
1540832915.4,286046999.8,N
1540832935.3,286047001.0,N
1540832955.1,286046998.3,N
1540832956.0,286046998.3,N
1540832975.8,286047000.7,N
1540832995.7,286047000.7,N
1540833015.5,286047000.3,N
1540833035.3,286047001.1,N
1540833055.2,286047001.2,N
1540833075.0,286047000.6,N
1540833075.9,286047000.6,N
1540833095.8,286047001.0,N
1540833115.6,286046998.5,N
1540833135.4,286047000.0,N
1540833155.3,286047000.0,N
1540833175.1,286047000.4,N
1540833195.8,286047001.2,N
1540833215.7,286046998.5,N
1540833235.5,286046998.7,N
1540833255.4,286047000.8,N
1540833275.2,286046998.3,N
1540833295.0,286046998.6,N
1540833295.9,286046998.6,N
1540833315.8,286046998.8,N
1540833335.6,286046996.7,N
1540833355.4,286046999.2,N
1540833375.3,286047001.2,N
1540833395.1,286046999.4,N
1540833415.9,286047000.3,N
1540833435.7,286046998.5,N
1540833455.5,286046998.8,N
1540833475.4,286046998.8,N
1540833495.2,286046998.7,N
1540833515.0,286047000.8,N
1540833516.0,286047000.8,N
1540833535.8,286046997.0,N
1540833555.6,286046996.8,N
1540833575.5,286046997.2,N
1540833595.3,286046997.6,N
1540833615.1,286046999.6,N
1540833635.9,286046996.6,N
1540833655.7,286046997.1,N
1540833675.6,286046997.7,N
1540833695.4,286046997.7,N
1540833715.2,286046995.6,Y
1540833735.1,286046997.1,P
1540833736.0,286046997.1,P
1540833755.8,286046997.7,N
1540833775.6,286046996.8,Y
1540833795.5,286046998.7,P
1540833815.3,286046998.8,N
1540833835.2,286046998.3,P
1540833855.9,286047000.3,N
1540833875.7,286047001.2,N
1540833895.6,286046998.8,N
1540833915.4,286046998.4,N
1540833935.2,286046996.6,Y
1540833955.1,286046998.3,P
1540833956.0,286046998.3,P
1540833975.8,286046998.5,P
1540833995.7,286046998.8,Y
1540834015.5,286046998.1,P
1540834035.3,286047000.7,P
1540834055.2,286047000.5,N
1540834075.0,286047000.7,N
1540834075.9,286047000.7,N
1540834095.8,286047000.9,N
1540834115.6,286047000.8,N
1540834135.4,286046999.0,N
1540834155.3,286046998.1,N
1540834175.1,286046998.3,N
1540834195.8,286046998.4,N
1540834215.7,286046998.8,N
1540834235.5,286046998.4,N
1540834255.3,286047001.1,N
1540834275.2,286047000.6,N
1540834295.0,286047001.0,N
1540834295.9,286047001.0,N
1540834315.8,286047000.5,N
1540834335.6,286046999.9,N
1540834355.4,286047000.3,N
1540834375.3,286046998.6,N
1540834395.1,286046999.1,N
1540834415.8,286046999.1,N
1540834435.7,286046999.2,N
1540834455.5,286046998.8,N
1540834475.4,286046998.8,N
1540834495.2,286046998.2,N
1540834515.0,286046998.4,N
1540834515.9,286046998.4,N
1540834535.8,286046999.0,N
1540834555.6,286046999.4,N
1540834575.4,286046999.5,N
1540834595.3,286046999.1,N
1540834615.1,286046999.2,N
1540834635.9,286046999.5,N
1540834655.7,286046997.3,N
1540834675.5,286046997.0,Y
1540834695.4,286046999.1,P
1540834715.2,286046997.2,P
1540834735.0,286046995.1,P
1540834735.9,286046995.1,N
1540834755.8,286046995.2,N
1540834775.6,286046996.1,N
1540834795.5,286046995.5,N
1540834815.3,286046997.7,N
1540834835.1,286046997.1,N
1540834855.9,286046995.0,Y
1540834875.7,286047000.3,P
1540834895.6,286046999.7,N
1540834915.4,286047000.8,N
1540834935.2,286047000.3,N
1540834955.1,286047001.0,N
1540834956.0,286047001.0,N
1540834975.8,286047000.8,N
1540834995.6,286047001.0,N
1540835015.5,286047000.6,N
1540835035.3,286047001.1,N
1540835055.1,286046998.9,N
1540835075.9,286046999.0,N
1540835095.7,286046996.9,N
1540835115.6,286046999.4,N
1540835135.4,286046996.6,N
1540835155.2,286046998.8,N
1540835175.1,286046999.4,N
1540835176.0,286046999.4,N
1540835195.8,286046996.9,N
1540835215.7,286046995.4,Y
1540835235.5,286046997.9,P
1540835255.3,286046994.9,P
1540835275.2,286046998.0,N
1540835295.9,286046995.2,N
1540835315.7,286046995.2,N
1540835335.6,286046995.6,N
1540835355.4,286046996.2,N
1540835375.3,286046996.1,N
1540835395.1,286046996.1,N
1540835396.0,286046996.1,N
1540835415.8,286046993.5,Y
1540835435.7,286046995.6,P
1540835455.5,286046995.9,P
1540835475.3,286046997.5,P
1540835495.2,286046996.7,Y
1540835515.0,286047000.8,P
1540835515.9,286047000.8,N
1540835535.8,286046996.7,N
1540835555.6,286046998.7,N
1540835575.4,286046998.6,N
1540835595.3,286046998.5,N
1540835615.1,286046998.8,N
1540835635.8,286046997.0,N
1540835655.7,286046997.0,N
1540835675.5,286046999.5,N
1540835695.4,286046997.0,N
1540835715.2,286046996.6,N
1540835735.0,286046999.4,N
1540835735.9,286046999.4,N
1540835755.8,286046999.6,N
1540835775.6,286046996.6,N
1540835795.4,286046996.6,N
1540835815.3,286046999.4,N
1540835835.1,286046996.9,N
1540835855.9,286046998.7,N
1540835875.7,286046998.5,N
1540835895.5,286046998.8,N
1540835915.4,286046999.6,N
1540835935.2,286046997.2,N
1540835955.0,286046997.3,N
1540835955.9,286046997.3,N
1540835975.8,286046996.8,N
1540835995.6,286046997.7,N
